User: anonymous   Login
Location: Albany
(35.0000°S, 118.0000°E)
Time: 18:21:08
(UTC-04:00)
Language:

ADEOS Rocket - Orbit

View from above orbital plane
View from above orbital plane
View from above satellite
View from above satellite

Ground track
Ground track

The orbit data is extracted from the following two-line orbital elements,

1 24279U 96046C   16206.08566345  .00000000  00000-0  43582-4 0  9997
2 24279  98.7043 185.3544 0301031  45.5936 354.7087 13.47054683980076
Epoch (UTC): 24 July 2016 02:03:21
Eccentricity: 0.0301031
inclination: 98.7043°
perigee height: 858 km
apogee height: 1308 km
right ascension of ascending node: 185.3544°
argument of perigee: 45.5936°
revolutions per day: 13.47054683
mean anomaly at epoch: 354.7087°
orbit number at epoch: 98007

The dashed part of the orbit path shows where the satellite is in the earth's shadow,  

DLR